Weather observations for the past three days for
Hyannis, Barnstable Municipal-Boardman Airport
Imperial (Metric)
Date Time (edt) Wind (mph) Vis. (mi.) Weather Sky Cond. Temperature (ºF) Relative Humidity Wind Chill (°F) Heat Index (°F) Pressure Precipitation (in)
Air Dwpt 6 hour altimeter (in) sea level (mb) 1 hr 3 hr 6 hr
Max. Min.
12 17:56 SW 9 10.00 Fair CLR 69.1 60.1 73% 29.95 1014.3
12 16:56 SW 12 10.00 Fair CLR 69.1 60.1 73% 29.96 1014.4
12 15:56 S 12 G 20 10.00 Fair CLR 69.1 59 70% 29.96 1014.7
12 14:56 SW 9 10.00 Fair CLR 71.1 57 61% 29.96 1014.8
12 13:56 SW 14 10.00 Fair CLR 72 57 72 64.9 59% 29.98 1015.1
12 12:56 S 9 10.00 Fair CLR 70 60.1 71% 29.98 1015.4
12 11:56 S 9 10.00 Fair CLR 70 60.1 71% 29.98 1015.4
12 09:56 SW 10 10.00 Fair CLR 70 57.9 66% 29.99 1015.7
12 08:56 S 7 10.00 Fair CLR 66.9 57.9 73% 29.99 1015.5
12 07:56 SW 9 10.00 Fair CLR 64.9 59 64.9 53.1 81% 29.98 1015.2
12 06:56 Calm 10.00 Fair CLR 63 60.1 90% 29.97 1014.9
12 05:56 Calm 10.00 Fair CLR 55 53.1 93% 29.97 1014.8
12 04:56 Calm 10.00 Mostly Cloudy BKN075 53.1 52 96% 29.97 1014.8
12 03:56 Calm 10.00 Partly Cloudy SCT075 53.1 52 96% 29.97 1014.8
12 02:56 Calm 10.00 Partly Cloudy SCT075 53.1 51.1 93% 29.97 1014.9
12 01:56 Calm 10.00 Fair CLR 54 52 64 54 93% 29.97 1014.8
12 00:56 NE 3 10.00 Fair CLR 54 52 93% 29.96 1014.7
11 23:56 Calm 10.00 Fair CLR 55 54 96% 29.97 1014.8
11 22:56 Calm 10.00 Fair CLR 57 54 90% 29.95 1014.4
11 20:56 SW 3 10.00 Fair CLR 63 57 81% 29.94 1013.9
11 19:56 SW 5 10.00 Fair CLR 64 57 69.1 64 78% 29.93 1013.6
11 18:56 SW 8 10.00 Fair CLR 64.9 57 76% 29.93 1013.5
11 17:56 S 6 10.00 Mostly Cloudy BKN060 66 55.9 70% 29.91 1013.0
11 16:56 Vrbl 6 10.00 Fair CLR 68 55.9 65% 29.91 1012.8
11 15:56 S 7 10.00 Mostly Cloudy SCT039 BKN055 68 55.9 65% 29.91 1012.8
11 14:56 S 6 10.00 Fair CLR 68 55.9 65% 29.9 1012.7
11 13:56 SE 9 10.00 Fair CLR 68 55.9 69.1 63 65% 29.9 1012.5
11 12:56 SW 9 10.00 Fair CLR 68 57 68% 29.91 1012.8
11 11:56 SE 9 10.00 Partly Cloudy SCT032 68 55.9 65% 29.89 1012.4
11 10:56 S 7 10.00 Partly Cloudy SCT030 66 55 68% 29.88 1011.9
11 09:56 N 8 10.00 Fair CLR 66.9 55 66% 29.89 1012.2
11 08:56 N 6 10.00 Fair CLR 64.9 54 68% 29.89 1012.2
11 06:56 NW 3 10.00 Fair CLR 60.1 52 75% 29.84 1010.5
11 05:56 Calm 10.00 Fair CLR 55.9 52 87% 29.83 1010.3
11 04:56 Calm 10.00 Fair CLR 55 50 83% 29.81 1009.5
11 03:56 W 3 10.00 Fair CLR 57 51.1 81% 29.79 1008.8
11 02:56 W 5 10.00 Fair CLR 57.9 51.1 78% 29.78 1008.5
11 01:56 W 3 10.00 Fair CLR 59 51.1 66 59 75% 29.78 1008.6
11 00:56 W 6 10.00 Mostly Cloudy BKN085 60.1 51.1 72% 29.76 1008.0
10 23:56 W 6 10.00 A Few Clouds FEW075 61 52 72% 29.75 1007.4
10 22:56 W 3 10.00 Fair CLR 62.1 55 78% 29.72 1006.4
10 21:56 W 7 10.00 Fair CLR 63 55.9 78% 29.69 1005.6
10 20:56 W 8 10.00 Fair CLR 64 55 73% 29.67 1004.6
10 19:56 SW 10 10.00 Fair CLR 66 54 72 64.9 65% 29.64 1003.9
10 18:56 SW 15 10.00 Fair CLR 66.9 54 63% 29.63 1003.5
10 17:56 SW 16 10.00 Fair CLR 68 55 63% 29.62 1003.2
10 16:56 SW 16 10.00 Fair CLR 69.1 54 59% 29.61 1002.9
10 15:56 SW 18 G 26 10.00 Fair CLR 69.1 54 59% 29.6 1002.4
10 14:56 SW 16 10.00 A Few Clouds FEW050 71.1 54 55% 29.59 1002.1
10 13:56 SW 16 10.00 Fair CLR 70 51.1 71.1 63 51% 29.58 1001.8
10 12:56 SW 17 10.00 A Few Clouds FEW060 71.1 52 51% 29.58 1001.7
10 11:56 SW 14 10.00 A Few Clouds FEW049 70 54 57% 29.57 1001.5
10 10:56 SW 9 10.00 A Few Clouds FEW045 69.1 52 55% 29.57 1001.4
10 09:56 SW 5 10.00 Fair CLR 68 52 57% 29.57 1001.3
10 08:56 W 9 10.00 Fair CLR 66 52 61% 29.57 1001.4
10 07:56 W 10 10.00 Fair CLR 63 52 63 55 68% 29.57 1001.5
10 06:56 W 8 10.00 Mostly Cloudy BKN060 BKN080 61 53.1 75% 29.58 1001.6
10 05:56 W 7 10.00 Overcast BKN065 OVC080 60.1 53.1 78% 29.57 1001.5
10 04:56 SW 8 10.00 Overcast SCT070 BKN090 OVC110 57.9 54 87% 29.56 1001.0
10 03:56 SW 7 10.00 Mostly Cloudy BKN085 57.9 55 90% 29.55 1000.7
10 02:56 W 6 10.00 Fair CLR 55.9 54 93% 29.55 1000.6
10 01:56 W 5 10.00 Fair CLR 57 54 61 57 90% 29.55 1000.6
10 00:56 W 5 10.00 Fair CLR 57 54 90% 29.55 1000.8
09 23:56 W 6 10.00 Fair CLR 57.9 55 90% 29.56 1001.0
09 21:56 W 9 10.00 Fair CLR 59 55.9 90% 29.56 1001.0
09 20:56 W 6 10.00 Fair CLR 60.1 57 90% 29.55 1000.7
09 19:56 SW 8 10.00 Fair CLR 61 57 64.9 57.9 87% 29.54 1000.5 0.02
09 18:56 SW 6 10.00 Fair CLR 63 55.9 78% 29.53 1000.1
Date Time (edt) Wind (mph) Vis. (mi.) Weather Sky Cond. Air Dwpt Max. Min. Relative Humidity Wind Chill (°F) Heat Index (°F) altimeter (in) sea level (mb) 1 hr 3 hr 6 hr
6 hour
Temperature (ºF) Pressure Precipitation (in)